Weather History for KFWB - February, 2014

Change the Weather History Date:

Saturday, February 22, 2014

  Actual Average (KHRO) Record (KHRO)
Temperature  
Mean Temperature 55 °F 42 °F  
Max Temperature 68 °F 52 °F 77 °F (1995)
Min Temperature 42 °F 32 °F 2 °F (1912)
Degree Days  
Heating Degree Days 10 23  
Month to date heating degree days 555  
Since 1 July heating degree days 3041  
Cooling Degree Days 0 0  
Month to date cooling degree days 0  
Year to date cooling degree days 0  
Growing Degree Days 5 (Base 50)    
Moisture  
Dew Point 22 °F    
Average Humidity 30    
Maximum Humidity 49    
Minimum Humidity 18    
Precipitation  
Precipitation 0.00 in 0.10 in 1.48 in (1979)
Month to date precipitation 2.02  
Year to date precipitation 4.58  
Snow  
Snow 0.00 in 0.10 in 4.00 in (1966)
Month to date snowfall 2.6  
Since 1 July snowfall 8.6  
Snow Depth -    
Sea Level Pressure  
Sea Level Pressure 29.92 in    
Wind  
Wind Speed 7 mph (SSW)    
Max Wind Speed 16 mph    
Max Gust Speed 23 mph    
Visibility 10 miles    
Events      
T = Trace of Precipitation, MM = Missing Value Source: NWS Daily Summary

Daily Weather History Graph

Daily Weather History Graph

Search for Another Location

Airport or City:

Trip Planner

Search our weather history database for the weather conditions in past years. The results will help you decide how hot, cold, wet, or windy it might be!

Date:

Astronomy

Feb. 22, 2014 Rise Set
Actual Time 6:53 AM CST 6:01 PM CST
Civil Twilight 6:27 AM CST 6:27 PM CST
Nautical Twilight 5:57 AM CST 6:57 PM CST
Astronomical Twilight 5:27 AM CST 7:27 PM CST
Moon 12:45 AM CST (2/22) 11:16 AM CST (2/22)
Length of Visible Light 12h 00m
Length of Day
11h 07m
Waning Gibbous, 50% of the Moon is Illuminated
Feb 22
Waning Gibbous
Mar 1
New
Mar 8
First Quarter
Mar 16
Full
Mar 23
Last Quarter

Hourly Weather History & Observations

Time (CST) Temp. Windchill Dew Point Humidity Pressure Visibility Wind Dir Wind Speed Gust Speed Precip Events Conditions
12:15 AM 46.4 °F 44.3 °F 14.0 °F 27% 29.99 in 10.0 mi SSW 4.6 mph - N/A   Partly Cloudy
12:35 AM 44.6 °F 41.4 °F 14.0 °F 29% 29.99 in 10.0 mi SSW 5.8 mph - N/A   Clear
12:55 AM 46.4 °F 41.5 °F 14.0 °F 27% 29.99 in 10.0 mi SW 10.4 mph - N/A   Clear
1:15 AM 46.4 °F 42.4 °F 14.0 °F 27% 29.99 in 10.0 mi SW 8.1 mph - N/A   Clear
1:35 AM 46.4 °F 42.4 °F 14.0 °F 27% 29.99 in 10.0 mi SW 8.1 mph - N/A   Clear
1:55 AM 46.4 °F 42.4 °F 14.0 °F 27% 29.98 in 10.0 mi SW 8.1 mph - N/A   Clear
2:15 AM 44.6 °F 40.2 °F 14.0 °F 29% 29.98 in 10.0 mi SW 8.1 mph - N/A   Partly Cloudy
2:35 AM 44.6 °F 39.7 °F 15.8 °F 31% 29.97 in 10.0 mi SW 9.2 mph - N/A   Clear
2:55 AM 44.6 °F 40.2 °F 15.8 °F 31% 29.97 in 10.0 mi SW 8.1 mph - N/A   Clear
3:15 AM 44.6 °F 40.2 °F 15.8 °F 31% 29.97 in 10.0 mi SW 8.1 mph - N/A   Clear
3:35 AM 44.6 °F 41.4 °F 15.8 °F 31% 29.97 in 10.0 mi SW 5.8 mph - N/A   Clear
3:55 AM 44.6 °F 40.7 °F 15.8 °F 31% 29.97 in 10.0 mi SW 6.9 mph - N/A   Clear
4:15 AM 44.6 °F 41.4 °F 15.8 °F 31% 29.98 in 10.0 mi SSW 5.8 mph - N/A   Clear
4:35 AM 44.6 °F 40.2 °F 15.8 °F 31% 29.97 in 10.0 mi SW 8.1 mph - N/A   Clear
4:55 AM 44.6 °F 42.2 °F 15.8 °F 31% 29.98 in 10.0 mi SW 4.6 mph - N/A   Clear
5:15 AM 42.8 °F 41.1 °F 15.8 °F 34% 29.99 in 10.0 mi SSW 3.5 mph - N/A   Clear
5:35 AM 42.8 °F 41.1 °F 15.8 °F 34% 29.99 in 10.0 mi South 3.5 mph - N/A   Clear
5:55 AM 44.6 °F - 15.8 °F 31% 29.99 in 10.0 mi Calm Calm - N/A   Clear
6:15 AM 44.6 °F - 15.8 °F 31% 29.99 in 10.0 mi Calm Calm - N/A   Clear
6:35 AM 44.6 °F 41.4 °F 15.8 °F 31% 29.98 in 10.0 mi South 5.8 mph - N/A   Clear
6:55 AM 44.6 °F 41.4 °F 15.8 °F 31% 29.98 in 10.0 mi South 5.8 mph - N/A   Clear
7:15 AM 44.6 °F 42.2 °F 15.8 °F 31% 29.98 in 10.0 mi SSE 4.6 mph - N/A   Clear
7:35 AM 46.4 °F 44.3 °F 15.8 °F 29% 29.98 in 10.0 mi South 4.6 mph - N/A   Clear
7:55 AM 48.2 °F - 15.8 °F 27% 29.98 in 10.0 mi South 5.8 mph - N/A   Clear
8:15 AM 50.0 °F - 17.6 °F 28% 29.98 in 10.0 mi SSE 4.6 mph - N/A   Clear
8:35 AM 50.0 °F - 17.6 °F 28% 29.98 in 10.0 mi SSE 6.9 mph - N/A   Clear
8:55 AM 50.0 °F - 19.4 °F 30% 29.98 in 10.0 mi SSE 5.8 mph - N/A   Clear
9:15 AM 55.4 °F - 19.4 °F 25% 29.98 in 10.0 mi South 4.6 mph - N/A   Clear
9:35 AM 57.2 °F - 23.0 °F 27% 29.98 in 10.0 mi SSE 5.8 mph - N/A   Clear
9:55 AM 57.2 °F - 23.0 °F 27% 29.97 in 10.0 mi SW 6.9 mph - N/A   Clear
10:15 AM 59.0 °F - 24.8 °F 27% 29.97 in 10.0 mi South 6.9 mph - N/A   Clear
10:35 AM 59.0 °F - 24.8 °F 27% 29.96 in 10.0 mi SSW 6.9 mph - N/A   Clear
10:55 AM 59.0 °F - 24.8 °F 27% 29.96 in 10.0 mi SW 8.1 mph 16.1 mph N/A   Clear
11:15 AM 59.0 °F - 24.8 °F 27% 29.95 in 10.0 mi SSW 6.9 mph - N/A   Clear
11:35 AM 60.8 °F - 24.8 °F 25% 29.94 in 10.0 mi South 11.5 mph - N/A   Clear
11:55 AM 62.6 °F - 24.8 °F 24% 29.92 in 10.0 mi South 10.4 mph 16.1 mph N/A   Clear
12:15 PM 64.4 °F - 24.8 °F 22% 29.92 in 10.0 mi SSW 12.7 mph 18.4 mph N/A   Clear
12:35 PM 64.4 °F - 26.6 °F 24% 29.90 in 10.0 mi SSW 6.9 mph 17.3 mph N/A   Clear
12:55 PM 66.2 °F - 24.8 °F 21% 29.88 in 10.0 mi South 8.1 mph 20.7 mph N/A   Clear
1:15 PM 66.2 °F - 24.8 °F 21% 29.87 in 10.0 mi SSE 5.8 mph 17.3 mph N/A   Clear
1:35 PM 68.0 °F - 26.6 °F 21% 29.86 in 10.0 mi SW 11.5 mph 17.3 mph N/A   Clear
1:55 PM 68.0 °F - 24.8 °F 20% 29.85 in 10.0 mi SSW 12.7 mph 21.9 mph N/A   Clear
2:15 PM - - - N/A% 29.83 in 10.0 mi SW 11.5 mph 19.6 mph N/A   Clear
2:35 PM 68.0 °F - 23.0 °F 18% 29.83 in 10.0 mi SW 16.1 mph 23.0 mph N/A   Clear
2:55 PM 66.2 °F - 24.8 °F 21% 29.83 in 10.0 mi SW 12.7 mph 18.4 mph N/A   Clear
3:15 PM 66.2 °F - 24.8 °F 21% 29.83 in 10.0 mi SW 11.5 mph 18.4 mph N/A   Clear
3:35 PM 66.2 °F - 24.8 °F 21% 29.82 in 10.0 mi SW 13.8 mph 20.7 mph N/A   Clear
3:55 PM 66.2 °F - 24.8 °F 21% 29.82 in 10.0 mi SW 12.7 mph 18.4 mph N/A   Clear
4:15 PM 64.4 °F - 24.8 °F 22% 29.82 in 10.0 mi SW 9.2 mph 17.3 mph N/A   Clear
4:35 PM 64.4 °F - 26.6 °F 24% 29.82 in 10.0 mi SW 6.9 mph - N/A   Clear
4:55 PM 64.4 °F - 26.6 °F 24% 29.83 in 10.0 mi WSW 6.9 mph - N/A   Clear
5:15 PM 64.4 °F - 26.6 °F 24% 29.83 in 10.0 mi SW 5.8 mph - N/A   Clear
5:35 PM 64.4 °F - 26.6 °F 24% 29.83 in 10.0 mi Calm Calm - N/A   Clear
5:55 PM 62.6 °F - 26.6 °F 26% 29.84 in 10.0 mi Calm Calm - N/A   Clear
6:15 PM 60.8 °F - 26.6 °F 27% 29.84 in 10.0 mi Calm Calm - N/A   Partly Cloudy
6:35 PM 59.0 °F - 28.4 °F 31% 29.85 in 10.0 mi Calm Calm - N/A   Mostly Cloudy
6:55 PM 59.0 °F - 26.6 °F 29% 29.85 in 10.0 mi Calm Calm - N/A   Overcast
7:15 PM 57.2 °F - 28.4 °F 33% 29.86 in 10.0 mi North 15.0 mph - N/A   Mostly Cloudy
7:35 PM 53.6 °F - 28.4 °F 38% 29.87 in 10.0 mi North 13.8 mph - N/A   Partly Cloudy
7:55 PM 53.6 °F - 28.4 °F 38% 29.89 in 10.0 mi North 11.5 mph 17.3 mph N/A   Clear
8:15 PM 51.8 °F - 26.6 °F 38% 29.89 in 10.0 mi NNE 13.8 mph 19.6 mph N/A   Partly Cloudy
8:35 PM 51.8 °F - 26.6 °F 38% 29.89 in 10.0 mi NNE 12.7 mph 18.4 mph N/A   Partly Cloudy
8:55 PM 50.0 °F - 26.6 °F 40% 29.90 in 10.0 mi NNE 13.8 mph 20.7 mph N/A   Partly Cloudy
9:15 PM 50.0 °F - 26.6 °F 40% 29.91 in 10.0 mi NE 9.2 mph 17.3 mph N/A   Mostly Cloudy
9:35 PM 50.0 °F - 26.6 °F 40% 29.92 in 10.0 mi ENE 10.4 mph 16.1 mph N/A   Overcast
9:55 PM 50.0 °F - 26.6 °F 40% 29.92 in 10.0 mi ENE 6.9 mph - N/A   Mostly Cloudy
10:15 PM 48.2 °F - 26.6 °F 43% 29.93 in 10.0 mi NE 6.9 mph - N/A   Mostly Cloudy
10:35 PM 48.2 °F - 26.6 °F 43% 29.94 in 10.0 mi NNE 5.8 mph - N/A   Scattered Clouds
10:55 PM 46.4 °F 45.2 °F 26.6 °F 46% 29.93 in 10.0 mi NE 3.5 mph - N/A   Mostly Cloudy
11:15 PM 46.4 °F 45.2 °F 26.6 °F 46% 29.93 in 10.0 mi NE 3.5 mph - N/A   Scattered Clouds
11:35 PM 46.4 °F 45.2 °F 26.6 °F 46% 29.93 in 10.0 mi NE 3.5 mph - N/A   Scattered Clouds
11:55 PM 44.6 °F 42.2 °F 26.6 °F 49% 29.92 in 10.0 mi NE 4.6 mph - N/A   Mostly Cloudy